When you browse on this site, cookies collect data to enhance your experience and personalize the content and advertising you see.
Visit our Privacy Policy to learn more. By continuing to use the site, you agree to this use of cookies and data.
  • In Hungary
  • List of Countries
  • For 7 days
  • Water Temperature
  • Satellite Maps
  • Weather Map
  • News
  • Weather Widgets
  • user-avatar
    Login

    Hourly Weather Osetin

    Today, 17 January, Thursday

    Time Temperature Precipitation Wind Pressure Humidity
    00:00 -17°C° 0 mm 6 mps 742 mmHg 91%
    01:00 -18°C° 0 mm 6 mps 742 mmHg 89%
    02:00 -18°C° 0 mm 6 mps 741 mmHg 89%
    03:00 -19°C° 0 mm 7 mps 741 mmHg 89%
    04:00 -19°C° 0 mm 8 mps 741 mmHg 90%
    05:00 -18°C° 0 mm 8 mps 740 mmHg 91%
    06:00 -17°C° 0 mm 7 mps 740 mmHg 92%
    07:00 -17°C° 0 mm 7 mps 740 mmHg 93%
    08:00 -15°C° 0 mm 7 mps 739 mmHg 92%
    09:00 -14°C° 0 mm 7 mps 739 mmHg 92%
    10:00 -13°C° 0 mm 8 mps 738 mmHg 92%
    11:00 -12°C° 0 mm 7 mps 738 mmHg 92%
    12:00 -12°C° 0 mm 7 mps 737 mmHg 92%
    13:00 -10°C° 0 mm 6 mps 737 mmHg 92%
    14:00 -9°C° 0 mm 6 mps 737 mmHg 92%
    15:00 -9°C° 0 mm 7 mps 737 mmHg 91%
    16:00 -6°C° 0 mm 8 mps 736 mmHg 91%
    17:00 -4°C° 0 mm 7 mps 736 mmHg 92%
    18:00 -4°C° 0 mm 7 mps 736 mmHg 92%
    19:00 -4°C° 0 mm 6 mps 736 mmHg 93%
    20:00 -4°C° 0.1 mm 6 mps 736 mmHg 94%
    21:00 -4°C° 0.1 mm 5 mps 736 mmHg 94%
    22:00 -3°C° 0.1 mm 4 mps 736 mmHg 95%
    23:00 -3°C° 0 mm 4 mps 736 mmHg 95%

    Tomorrow, 18 January, Friday

    Time Temperature Precipitation Wind Pressure Humidity
    00:00 -2°C° 0 mm 3 mps 736 mmHg 96%
    01:00 -2°C° 0 mm 3 mps 737 mmHg 96%
    02:00 -2°C° 0 mm 2 mps 737 mmHg 96%
    03:00 -2°C° 0 mm 2 mps 737 mmHg 97%
    04:00 0°C° 0 mm 1 mps 737 mmHg 97%
    05:00 0°C° 0 mm 1 mps 737 mmHg 97%
    06:00 0°C° 0 mm 1 mps 738 mmHg 97%
    07:00 0°C° 0 mm 1 mps 738 mmHg 96%
    08:00 0°C° 0 mm 1 mps 738 mmHg 96%
    09:00 0°C° 0 mm 1 mps 738 mmHg 96%
    10:00 0°C° 0 mm 1 mps 739 mmHg 96%
    11:00 0°C° 0 mm 1 mps 738 mmHg 96%
    12:00 -2°C° 0 mm 2 mps 738 mmHg 96%
    13:00 -2°C° 0 mm 2 mps 738 mmHg 96%
    14:00 -2°C° 0 mm 2 mps 738 mmHg 96%
    15:00 -3°C° 0 mm 2 mps 738 mmHg 96%
    16:00 -4°C° 0 mm 2 mps 739 mmHg 95%
    17:00 -5°C° 0 mm 2 mps 739 mmHg 95%
    18:00 -7°C° 0 mm 2 mps 739 mmHg 96%
    19:00 -8°C° 0 mm 2 mps 739 mmHg 96%
    20:00 -9°C° 0 mm 2 mps 739 mmHg 94%
    21:00 -12°C° 0 mm 2 mps 739 mmHg 92%
    22:00 -13°C° 0 mm 2 mps 739 mmHg 91%
    23:00 -13°C° 0 mm 2 mps 739 mmHg 85%

    Day after tomorrow, 19 January, Saturday

    Time Temperature Precipitation Wind Pressure Humidity
    00:00 -14°C° 0 mm 2 mps 739 mmHg 80%
    01:00 -13°C° 0 mm 1 mps 739 mmHg 75%
    02:00 -15°C° 0 mm 2 mps 739 mmHg 72%
    03:00 -15°C° 0 mm 2 mps 739 mmHg 70%
    04:00 -15°C° 0 mm 2 mps 739 mmHg 67%
    05:00 -15°C° 0 mm 2 mps 739 mmHg 68%
    06:00 -15°C° 0 mm 2 mps 739 mmHg 70%
    07:00 -13°C° 0 mm 1 mps 739 mmHg 71%
    08:00 -12°C° 0 mm 1 mps 739 mmHg 71%
    09:00 -12°C° 0 mm 1 mps 739 mmHg 71%
    10:00 -11°C° 0 mm 0 mps 739 mmHg 71%
    11:00 -11°C° 0 mm 0 mps 739 mmHg 72%
    12:00 -10°C° 0 mm 0 mps 739 mmHg 73%
    13:00 -9°C° 0 mm 0 mps 739 mmHg 74%
    14:00 -10°C° 0 mm 0 mps 738 mmHg 72%
    15:00 -11°C° 0 mm 0 mps 738 mmHg 70%
    16:00 -12°C° 0 mm 1 mps 738 mmHg 69%
    17:00 -12°C° 0 mm 0 mps 738 mmHg 68%
    18:00 -13°C° 0 mm 0 mps 738 mmHg 68%
    19:00 -13°C° 0 mm 0 mps 738 mmHg 68%
    20:00 -13°C° 0 mm 0 mps 737 mmHg 69%
    21:00 -14°C° 0 mm 0 mps 737 mmHg 70%
    22:00 -14°C° 0 mm 1 mps 737 mmHg 71%
    23:00 -14°C° 0 mm 1 mps 737 mmHg 73%

    20 January, Sunday

    Time Temperature Precipitation Wind Pressure Humidity
    00:00 -14°C° 0 mm 1 mps 737 mmHg 75%
    01:00 -14°C° 0 mm 1 mps 737 mmHg 76%
    02:00 -14°C° 0 mm 1 mps 736 mmHg 78%
    03:00 -14°C° 0 mm 1 mps 736 mmHg 81%
    04:00 -16°C° 0 mm 2 mps 736 mmHg 83%
    05:00 -16°C° 0 mm 2 mps 736 mmHg 85%
    06:00 -16°C° 0 mm 2 mps 736 mmHg 88%
    07:00 -16°C° 0 mm 2 mps 736 mmHg 91%
    08:00 -14°C° 0 mm 2 mps 736 mmHg 92%
    09:00 -13°C° 0 mm 2 mps 736 mmHg 94%
    10:00 -13°C° 0 mm 3 mps 736 mmHg 95%
    11:00 -12°C° 0 mm 3 mps 736 mmHg 95%
    12:00 -10°C° 0 mm 3 mps 736 mmHg 95%
    13:00 -9°C° 0 mm 4 mps 735 mmHg 96%
    14:00 -9°C° 0 mm 4 mps 735 mmHg 95%
    15:00 -8°C° 0 mm 4 mps 735 mmHg 95%
    16:00 -7°C° 0 mm 5 mps 735 mmHg 95%
    17:00 -7°C° 0 mm 5 mps 735 mmHg 94%
    18:00 -6°C° 0 mm 5 mps 735 mmHg 94%
    19:00 -6°C° 0 mm 5 mps 736 mmHg 93%
    20:00 -7°C° 0 mm 5 mps 736 mmHg 92%
    21:00 -10°C° 0 mm 6 mps 737 mmHg 90%
    22:00 -11°C° 0 mm 6 mps 737 mmHg 88%
    23:00 -14°C° 0 mm 6 mps 738 mmHg 88%

    21 January, Monday

    Time Temperature Precipitation Wind Pressure Humidity
    00:00 -14°C° 0 mm 5 mps 739 mmHg 88%
    01:00 -17°C° 0 mm 5 mps 740 mmHg 88%
    02:00 -18°C° 0 mm 5 mps 741 mmHg 89%
    03:00 -18°C° 0 mm 4 mps 742 mmHg 91%
    04:00 -20°C° 0 mm 4 mps 742 mmHg 92%
    05:00 -19°C° 0 mm 3 mps 743 mmHg 93%
    06:00 -21°C° 0 mm 3 mps 744 mmHg 93%
    07:00 -21°C° 0 mm 3 mps 744 mmHg 94%
    08:00 -21°C° 0 mm 3 mps 745 mmHg 93%
    09:00 -21°C° 0 mm 3 mps 745 mmHg 93%
    10:00 -21°C° 0 mm 3 mps 746 mmHg 93%
    11:00 -19°C° 0 mm 3 mps 746 mmHg 92%
    12:00 -18°C° 0 mm 3 mps 746 mmHg 92%
    13:00 -18°C° 0 mm 3 mps 746 mmHg 92%
    14:00 -18°C° 0 mm 3 mps 746 mmHg 91%
    15:00 -19°C° 0 mm 3 mps 746 mmHg 90%
    16:00 -19°C° 0 mm 3 mps 747 mmHg 90%
    17:00 -19°C° 0 mm 3 mps 747 mmHg 89%
    18:00 -21°C° 0 mm 3 mps 747 mmHg 89%
    19:00 -21°C° 0 mm 3 mps 747 mmHg 89%
    20:00 -21°C° 0 mm 3 mps 747 mmHg 88%
    21:00 -21°C° 0 mm 3 mps 747 mmHg 88%
    22:00 -21°C° 0 mm 3 mps 747 mmHg 87%
    23:00 -21°C° 0 mm 3 mps 746 mmHg 87%

    22 January, Tuesday

    Time Temperature Precipitation Wind Pressure Humidity
    00:00 -22°C° 0 mm 3 mps 746 mmHg 87%
    01:00 -22°C° 0 mm 3 mps 746 mmHg 86%
    02:00 -21°C° 0 mm 3 mps 746 mmHg 85%
    03:00 -22°C° 0 mm 4 mps 745 mmHg 85%
    04:00 -22°C° 0 mm 4 mps 745 mmHg 84%
    05:00 -22°C° 0 mm 4 mps 745 mmHg 84%
    06:00 -22°C° 0 mm 4 mps 744 mmHg 83%
    07:00 -22°C° 0 mm 4 mps 744 mmHg 82%
    08:00 -21°C° 0 mm 5 mps 744 mmHg 82%
    09:00 -21°C° 0 mm 6 mps 743 mmHg 82%
    10:00 -20°C° 0 mm 7 mps 743 mmHg 81%
    11:00 -20°C° 0 mm 7 mps 743 mmHg 83%
    12:00 -19°C° 0 mm 7 mps 742 mmHg 85%
    13:00 -18°C° 0 mm 7 mps 741 mmHg 87%
    14:00 -18°C° 0 mm 7 mps 741 mmHg 89%
    15:00 -17°C° 0 mm 7 mps 740 mmHg 90%
    16:00 -17°C° 0 mm 7 mps 740 mmHg 92%
    17:00 -15°C° 0.1 mm 8 mps 739 mmHg 92%
    18:00 -12°C° 0.1 mm 8 mps 739 mmHg 93%
    19:00 -11°C° 0.1 mm 9 mps 738 mmHg 93%
    20:00 -9°C° 0.1 mm 9 mps 738 mmHg 91%
    21:00 -8°C° 0.1 mm 10 mps 737 mmHg 90%
    22:00 -5°C° 0.1 mm 10 mps 736 mmHg 88%
    23:00 -7°C° 0.4 mm 10 mps 736 mmHg 89%
    Show more